Theta_e
305 300 300 300 300 301 300 299 299 298 296 295 293 292 291 291 292 293 294 296 297 297 297 297 296 296 296 295 294 293 292 291 290 290 289 289 287 286 286 284 283 283
303 301 299 299 299 299 299 299 298 297 296 295 293 291 290 291 292 293 293 295 295 296 295 294 293 293 293 292 291 291 289 289 288 290 288 287 286 285 284 283 282 282
301 300 299 299 299 299 299 299 297 296 296 294 293 291 291 291 291 292 293 294 293 293 294 293 292 291 290 290 289 288 288 287 287 286 286 286 285 284 283 282 282 281
300 300 299 299 300 299 299 298 297 297 296 294 292 291 291 291 291 292 292 292 292 291 291 291 290 289 288 288 287 287 287 287 286 286 285 284 284 284 283 282 281 281
299 299 299 299 299 299 298 297 296 296 295 293 292 291 289 289 290 290 291 290 290 290 289 289 289 288 287 287 286 286 285 285 284 284 284 283 283 283 282 281 281 280
299 299 298 298 298 297 297 297 296 295 294 292 291 290 288 288 289 289 289 289 289 289 288 288 287 287 287 286 285 285 284 284 284 283 283 283 282 282 282 281 280 280
298 298 297 297 296 296 296 296 296 294 293 291 289 288 287 287 287 287 288 289 288 288 288 287 286 286 286 285 285 284 283 284 283 283 282 281 281 281 280 280 280 279
297 297 296 296 295 294 294 293 293 292 290 288 288 286 286 286 286 287 287 287 287 287 287 286 286 286 285 284 284 283 283 284 283 282 281 280 280 280 279 280 279 279
294 294 294 294 293 292 291 291 291 290 289 288 286 285 285 286 286 286 287 287 287 286 286 285 285 285 284 284 283 283 282 282 282 281 280 280 279 279 279 279 278 278
292 292 292 292 292 291 290 290 290 289 288 287 286 285 285 285 285 286 286 286 285 285 284 284 284 284 283 283 283 282 282 282 280 280 280 280 280 279 279 279 279 278
292 291 291 291 291 290 290 289 289 288 288 287 286 285 285 284 284 285 285 285 285 284 284 283 283 283 283 282 282 282 282 282 280 280 280 279 279 280 281 280 279 279
293 291 291 291 291 290 289 288 288 287 287 287 287 286 284 284 284 284 284 284 283 283 283 283 282 282 282 282 282 282 282 281 280 280 279 279 279 280 280 280 279 279
292 291 291 291 290 289 288 287 287 286 286 286 286 286 284 284 283 283 283 283 283 282 282 282 282 282 282 282 282 282 282 280 279 279 279 279 279 280 280 280 279 279
292 291 291 291 290 289 288 287 287 287 286 286 285 284 285 284 284 283 282 282 282 282 282 282 281 282 282 282 282 281 281 280 280 280 279 279 280 280 280 279 279 279
292 291 291 290 290 289 288 287 287 286 286 285 285 285 284 283 283 283 282 282 281 281 281 281 282 282 282 282 281 281 281 281 281 280 279 280 280 279 279 279 280 280
291 290 290 290 289 288 288 287 287 286 285 285 285 285 283 283 282 282 282 282 281 280 281 282 282 283 284 285 285 282 281 281 281 280 280 279 279 279 279 279 279 279
290 289 289 289 289 289 288 287 286 286 285 285 284 284 283 282 282 282 281 281 281 281 281 282 282 283 285 287 288 287 282 281 281 280 279 279 279 279 279 279 278 279
290 289 288 288 288 288 288 287 286 285 285 284 284 284 283 282 281 281 281 281 281 281 281 282 282 284 287 288 288 288 285 281 280 280 280 280 279 279 279 278 278 278
289 288 287 287 288 288 287 286 286 285 285 284 284 284 283 282 281 281 281 281 281 281 281 281 281 286 288 288 288 288 288 283 281 280 280 280 279 279 279 278 278 278
288 287 287 287 287 287 287 286 286 285 285 285 284 284 283 282 282 281 281 281 281 281 281 281 281 285 288 288 288 288 287 285 280 280 280 280 279 279 279 279 278 278
288 287 287 287 286 286 286 286 286 285 285 285 285 284 283 283 282 281 281 281 281 281 281 280 280 286 288 288 288 288 289 284 280 280 280 280 279 279 279 279 279 279
288 287 287 286 286 285 285 285 285 285 285 285 284 284 284 284 283 282 282 281 281 281 280 279 279 287 288 288 288 290 288 282 280 280 280 279 279 279 279 279 279 279
289 288 287 286 285 285 284 284 284 285 285 285 284 284 283 283 282 282 282 281 281 280 280 279 279 285 287 288 288 289 287 281 280 280 280 279 279 279 279 279 279 279
289 288 287 286 285 285 284 284 285 285 285 285 284 284 283 283 283 282 282 281 280 280 280 279 279 283 287 287 288 288 285 281 280 280 280 279 279 279 279 279 280 281
288 288 287 287 286 286 285 285 284 285 285 285 284 284 284 283 283 282 281 281 280 280 281 280 279 282 287 288 288 288 285 282 281 280 279 279 279 279 279 279 279 281
288 287 287 287 286 286 286 285 285 285 284 284 284 284 283 282 282 282 281 281 280 280 280 280 279 280 285 287 287 287 286 283 282 281 280 279 279 279 278 278 278 278
Wind_Speed
7 6 7 7 7 7 9 9 8 9 8 7 7 7 8 7 8 8 7 8 8 8 8 7 7 7 7 8 8 7 7 8 7 7 8 8 7 9 8 7 6 7
9 7 6 6 5 5 7 7 7 8 8 8 6 7 6 8 9 9 9 9 8 8 7 7 7 8 8 8 8 9 8 8 8 6 9 8 7 8 8 8 8 6
8 8 8 9 8 7 8 7 6 6 7 7 7 7 7 8 10 9 8 8 8 8 8 8 7 7 8 8 8 9 9 8 8 6 8 8 7 8 7 8 7 7
9 9 9 9 8 8 7 7 7 6 6 6 7 8 8 7 9 10 9 8 7 8 8 8 8 7 7 8 8 8 8 8 8 8 8 6 6 8 8 8 7 7
9 9 8 8 7 8 8 8 9 8 8 7 7 8 8 8 8 9 9 8 7 8 8 8 8 8 8 8 8 8 7 8 7 8 9 8 7 8 7 9 9 8
9 8 8 8 7 8 9 9 9 8 8 8 9 8 8 9 9 10 10 9 8 8 9 8 8 8 8 8 8 8 8 8 8 9 9 10 8 6 7 8 9 9
10 10 10 8 7 8 9 9 8 8 8 8 8 9 9 9 9 8 9 9 10 9 10 10 9 9 8 8 8 9 8 9 9 9 10 8 9 8 6 8 8 9
10 9 10 8 9 7 8 8 7 7 7 8 9 8 9 9 9 9 8 9 10 9 9 9 10 10 10 9 10 10 9 7 9 10 10 9 9 10 8 7 8 9
8 9 9 9 10 8 8 8 8 8 8 10 9 9 7 9 9 9 10 10 10 10 10 9 10 10 10 11 11 12 12 10 10 11 12 12 11 11 10 8 9 9
9 8 10 11 11 9 9 8 8 8 8 9 9 9 10 8 8 9 9 10 10 10 10 10 10 10 10 10 12 13 12 13 11 11 11 12 12 11 11 11 11 10
10 9 11 12 12 10 10 9 9 8 8 9 9 9 9 9 8 9 10 10 10 11 10 10 11 11 11 10 9 10 12 12 12 11 11 12 12 12 12 12 12 12
13 12 13 13 12 11 11 10 9 9 9 8 10 11 9 9 10 9 10 10 9 10 10 11 10 11 11 11 11 11 11 11 11 11 11 11 10 11 11 11 11 11
15 15 13 12 12 11 9 9 10 10 10 10 9 11 11 10 9 10 8 10 9 9 10 10 10 10 10 10 11 12 12 11 10 10 10 9 10 11 11 10 10 10
15 14 13 13 11 10 10 10 10 10 11 10 9 11 12 12 12 11 9 9 9 10 9 9 10 10 10 10 11 11 11 10 11 11 10 9 10 10 10 9 10 10
12 11 11 12 13 12 11 12 11 10 10 10 10 10 9 11 10 11 11 10 8 9 9 9 10 11 10 11 11 11 11 11 11 11 11 11 10 9 9 9 8 9
11 10 11 12 13 14 13 12 12 11 11 11 11 10 10 10 10 10 11 12 12 10 9 9 10 8 12 17 15 13 12 10 9 10 10 10 10 10 8 8 8 8
10 12 11 13 14 13 12 13 13 11 12 12 11 11 11 11 11 12 11 11 12 12 12 10 10 9 16 18 18 18 13 11 11 10 9 10 10 11 11 10 8 7
12 11 12 13 13 14 14 13 12 11 12 13 12 11 11 10 12 13 12 11 10 11 12 12 11 13 19 20 19 19 15 12 10 10 10 10 10 10 9 9 9 8
11 12 13 13 14 14 13 12 13 13 13 12 14 12 10 12 12 11 11 11 11 13 13 12 10 16 20 21 20 19 15 14 9 11 9 10 10 10 9 9 9 8
11 11 13 14 12 12 12 13 14 15 13 12 10 10 12 12 11 13 11 12 12 12 11 11 10 14 20 20 20 20 20 12 9 10 10 10 10 10 9 10 10 10
13 13 13 12 12 11 12 13 14 12 12 11 11 12 12 12 12 11 10 9 10 9 10 9 9 14 20 21 20 19 15 12 9 8 8 8 8 8 9 9 10 9
13 13 13 11 11 11 12 13 13 13 14 11 10 9 8 8 8 10 11 11 9 8 9 9 7 14 18 19 19 16 19 9 8 8 7 7 7 7 8 7 8 9
13 13 12 11 11 11 12 12 13 12 11 8 10 10 10 10 9 8 7 8 8 8 9 8 7 14 19 19 19 19 13 6 7 6 6 7 8 7 7 7 8 8
12 12 12 11 11 13 13 11 9 7 9 9 11 10 10 9 8 8 7 8 10 10 10 9 7 11 18 18 17 19 13 10 8 7 7 6 6 6 6 6 8 11
10 11 12 12 13 13 12 12 12 12 10 9 9 10 11 10 9 9 8 7 8 9 10 10 8 11 18 18 19 18 13 8 8 7 7 6 6 6 5 6 6 8
8 11 12 12 13 12 10 11 9 8 10 11 10 9 9 9 9 8 10 8 8 9 9 9 9 8 13 18 18 19 17 10 8 8 9 9 7 7 6 5 6 6
Wind_Direction
193 160 174 178 179 177 178 183 183 181 181 174 176 170 171 161 162 169 172 174 175 168 164 161 152 150 148 148 148 140 143 143 142 141 134 135 139 136 135 132 123 127
195 174 169 172 172 168 182 185 181 181 180 175 174 163 157 153 168 168 171 175 172 167 157 152 153 152 151 150 148 143 142 144 144 145 137 140 147 133 134 133 126 123
189 182 179 185 185 178 179 182 178 181 179 172 158 158 159 163 163 169 169 174 167 158 156 153 152 154 151 148 146 146 148 147 146 145 138 146 141 130 132 127 123 127
192 189 187 189 186 182 176 176 181 175 168 165 165 159 161 166 165 164 164 168 163 160 155 153 155 153 150 147 143 145 150 150 149 140 130 124 130 130 132 124 121 117
193 190 187 186 185 179 176 184 183 179 173 166 147 152 151 157 166 164 161 162 161 159 156 155 154 153 149 146 144 143 147 144 146 139 135 134 141 133 136 128 130 130
196 190 185 188 186 174 178 185 184 176 167 157 162 154 160 162 167 167 163 161 164 161 158 155 156 154 152 148 144 148 149 145 151 140 137 139 138 133 135 135 136 139
190 185 187 186 186 180 178 182 179 175 171 163 146 163 157 162 167 168 164 163 161 164 161 161 158 157 156 149 148 150 151 149 147 145 139 140 136 137 138 140 143 141
190 184 182 184 187 181 181 178 175 174 163 150 163 164 162 165 166 165 165 162 163 164 164 163 163 161 158 153 152 151 152 154 150 146 142 143 143 147 154 151 145 141
185 184 178 181 184 183 182 179 177 170 164 163 162 161 164 167 166 164 167 166 165 165 165 166 167 165 164 159 160 159 157 161 158 153 151 153 157 160 158 151 145 148
190 183 179 181 186 185 183 181 175 170 167 165 163 159 164 168 163 164 166 170 166 167 169 168 168 170 167 168 165 163 161 161 161 160 160 162 161 160 160 160 157 151
193 185 186 185 188 185 184 177 176 169 170 169 162 164 168 163 165 166 171 172 173 172 171 172 173 170 170 168 166 164 162 161 164 164 164 165 165 165 165 162 163 162
193 190 192 189 186 186 184 179 173 173 173 175 172 166 166 171 167 173 176 178 177 175 173 173 173 174 172 168 164 162 164 166 166 165 165 164 165 167 168 169 165 163
193 193 190 187 187 185 179 177 178 176 174 179 180 167 168 172 176 174 181 176 177 173 176 174 174 173 172 168 165 166 167 166 164 163 163 163 168 170 172 171 166 162
196 189 188 186 181 180 180 181 179 179 180 177 177 175 175 175 175 177 177 176 178 178 177 173 173 174 173 170 168 166 166 168 167 165 164 166 167 171 172 171 167 166
193 190 187 180 177 180 183 184 183 179 177 178 182 182 179 177 176 174 172 176 178 177 175 176 177 180 176 172 167 169 170 169 169 168 166 165 166 167 170 170 167 169
196 192 188 182 179 184 186 183 182 179 178 181 185 183 179 174 175 177 177 178 176 178 178 178 184 184 183 177 172 168 170 169 169 170 167 165 163 163 168 172 172 169
194 197 189 188 187 184 183 184 183 179 179 182 183 182 180 178 173 176 184 182 180 179 180 185 186 187 183 180 178 172 167 167 168 170 169 167 168 167 170 174 176 171
201 196 194 195 186 187 186 184 178 179 182 183 181 181 184 176 178 184 183 181 183 184 186 187 188 185 183 183 179 174 170 168 167 167 172 175 173 173 172 170 171 171
197 198 201 197 196 189 184 177 182 183 183 182 188 184 171 179 185 179 186 187 185 187 192 190 191 185 185 184 180 174 163 166 172 172 169 174 176 175 169 169 170 172
197 200 204 204 197 190 183 183 184 189 187 184 177 177 183 183 181 185 185 189 191 192 191 191 190 186 184 182 179 176 173 160 166 166 174 177 176 174 172 173 175 175
199 201 205 203 199 192 188 188 187 186 186 185 181 184 183 183 181 182 188 190 192 192 191 189 191 181 183 181 179 176 160 154 164 168 169 173 175 177 178 177 180 181
199 201 202 201 198 196 193 191 189 188 187 183 182 186 188 181 185 182 183 185 183 182 184 191 186 179 177 178 174 165 166 162 161 163 164 169 173 179 182 184 182 185
199 197 197 198 198 198 199 194 191 190 187 179 182 184 180 182 180 179 177 175 177 182 183 186 179 180 177 178 177 169 159 148 155 157 166 171 183 183 184 185 190 188
198 194 194 193 194 201 201 200 194 188 186 179 183 178 181 181 174 174 174 176 177 182 183 178 177 179 177 180 172 173 163 165 163 163 171 177 181 184 183 191 198 192
196 193 193 192 196 199 197 195 192 190 183 176 183 181 180 171 171 169 169 173 178 179 179 176 173 181 178 173 172 170 159 165 163 169 177 186 183 189 183 190 201 198
195 196 195 193 196 193 193 195 188 181 182 184 184 178 171 169 165 163 167 177 175 174 180 178 169 178 179 171 171 172 168 162 169 168 188 192 189 184 187 205 198 196